| time (UTC) | temp C | wind direction | speed KPH | gust KPH | rain 1hr cm | rain 24hr cm | rain mn cm | humidity % | barometer mb |
| 20260903141246 | 21 | 326 | 1.6 | 4.8 | 0.00 | 0.00 | 0.00 | 77 | 1013.4 |
| 20260903141013 | 20 | 344 | 0.0 | 4.8 | 0.00 | 0.00 | 0.00 | 76 | 1013.6 |
| 20260903140242 | 20 | 343 | 0.0 | 4.8 | 0.00 | 0.00 | 0.00 | 77 | 1013.5 |
| 20260903140212 | 20 | 296 | 0.0 | 4.8 | 0.00 | 0.00 | 0.00 | 78 | 1013.5 |
| 20260903135247 | 20 | 305 | 0.0 | 8.0 | 0.00 | 0.00 | 0.00 | 79 | 1013.4 |
| 20260903134744 | 20 | 42 | 1.6 | 8.0 | 0.00 | 0.00 | 0.00 | 80 | 1013.3 |
| 20260903134300 | 20 | 331 | 1.6 | 4.8 | 0.00 | 0.00 | 0.00 | 81 | 1013.3 |
| 20260903133739 | 20 | 217 | 0.0 | 4.8 | 0.00 | 0.00 | 0.00 | 80 | 1013.2 |
| 20260903133240 | 20 | 41 | 0.0 | 4.8 | 0.00 | 0.00 | 0.00 | 80 | 1013.4 |
| 20260903132739 | 20 | 15 | 0.0 | 4.8 | 0.00 | 0.00 | 0.00 | 78 | 1013.4 |
| 20260903132240 | 20 | 355 | 1.6 | 4.8 | 0.00 | 0.00 | 0.00 | 78 | 1013.4 |
| 20260903131739 | 20 | 324 | 0.0 | 4.8 | 0.00 | 0.00 | 0.00 | 78 | 1013.3 |
| 20260903131507 | 20 | 331 | 0.0 | 4.8 | 0.00 | 0.00 | 0.00 | 81 | 1013.4 |
| 20260903130738 | 19 | 317 | 0.0 | 4.8 | 0.00 | 0.00 | 0.00 | 82 | 1013.4 |
| 20260903130507 | 19 | 298 | 0.0 | 4.8 | 0.00 | 0.00 | 0.00 | 83 | 1013.2 |
| 20260903125733 | 20 | 316 | 1.6 | 3.2 | 0.00 | 0.00 | 0.00 | 85 | 1013.3 |
| 20260903125226 | 19 | 303 | 1.6 | 3.2 | 0.00 | 0.00 | 0.00 | 87 | 1013.3 |
| 20260903124727 | 19 | 327 | 0.0 | 3.2 | 0.00 | 0.00 | 0.00 | 89 | 1013.2 |
| 20260903124227 | 18 | 309 | 0.0 | 3.2 | 0.00 | 0.00 | 0.00 | 90 | 1013.3 |
| 20260903123725 | 18 | 95 | 0.0 | 4.8 | 0.00 | 0.00 | 0.00 | 92 | 1013.3 |
| 20260903123223 | 18 | 343 | 1.6 | 6.4 | 0.00 | 0.00 | 0.00 | 94 | 1013.3 |
| 20260903122724 | 17 | 333 | 1.6 | 6.4 | 0.00 | 0.00 | 0.00 | 95 | 1013.5 |
| 20260903122223 | 17 | 283 | 3.2 | 9.7 | 0.00 | 0.00 | 0.00 | 95 | 1013.5 |
| 20260903121722 | 17 | 278 | 3.2 | 9.7 | 0.00 | 0.00 | 0.00 | 96 | 1013.5 |
| 20260903121450 | 16 | 272 | 4.8 | 8.0 | 0.00 | 0.00 | 0.00 | 96 | 1013.4 |
| 20260903120721 | 16 | 267 | 1.6 | 4.8 | 0.00 | 0.00 | 0.00 | 97 | 1013.2 |
| 20260903120223 | 16 | 268 | 1.6 | 6.4 | 0.00 | 0.00 | 0.00 | 97 | 1013.2 |
| 20260903115942 | 16 | 279 | 3.2 | 6.4 | 0.00 | 0.00 | 0.00 | 97 | 1013.2 |
| 20260903115212 | 15 | 269 | 4.8 | 6.4 | 0.00 | 0.00 | 0.00 | 97 | 1013.2 |
| 20260903114711 | 15 | 268 | 3.2 | 4.8 | 0.00 | 0.00 | 0.00 | 96 | 1013.1 |
| 20260903114210 | 15 | 255 | 1.6 | 3.2 | 0.00 | 0.00 | 0.00 | 97 | 1013.0 |
| 20260903113708 | 15 | 259 | 1.6 | 3.2 | 0.00 | 0.00 | 0.00 | 97 | 1012.9 |
| 20260903113208 | 15 | 265 | 0.0 | 3.2 | 0.00 | 0.00 | 0.00 | 96 | 1013.0 |
| 20260903112708 | 15 | 250 | 0.0 | 3.2 | 0.00 | 0.00 | 0.00 | 96 | 1013.0 |
| 20260903112207 | 15 | 247 | 0.0 | 3.2 | 0.00 | 0.00 | 0.00 | 96 | 1013.0 |
| 20260903111707 | 15 | 267 | 1.6 | 4.8 | 0.00 | 0.00 | 0.00 | 96 | 1012.9 |
| 20260903111208 | 15 | 278 | 1.6 | 4.8 | 0.00 | 0.00 | 0.00 | 96 | 1013.0 |
| 20260903110705 | 15 | 264 | 1.6 | 3.2 | 0.00 | 0.00 | 0.00 | 96 | 1013.0 |
| 20260903110212 | 15 | 271 | 1.6 | 4.8 | 0.00 | 0.00 | 0.00 | 96 | 1013.0 |
| 20260903105933 | 15 | 275 | 1.6 | 4.8 | 0.00 | 0.00 | 0.00 | 96 | 1012.9 |
| 20260903105203 | 15 | 290 | 0.0 | 4.8 | 0.00 | 0.00 | 0.00 | 96 | 1012.9 |
| 20260903104703 | 15 | 283 | 1.6 | 4.8 | 0.00 | 0.00 | 0.00 | 96 | 1012.8 |
| 20260903104204 | 15 | 261 | 3.2 | 4.8 | 0.00 | 0.00 | 0.00 | 96 | 1012.9 |
| 20260903103703 | 15 | 265 | 3.2 | 3.2 | 0.00 | 0.00 | 0.00 | 96 | 1012.9 |
| 20260903103203 | 15 | 275 | 1.6 | 4.8 | 0.00 | 0.00 | 0.00 | 96 | 1012.8 |
| 20260903102702 | 15 | 282 | 3.2 | 6.4 | 0.00 | 0.00 | 0.00 | 96 | 1012.9 |
| 20260903102202 | 15 | 275 | 3.2 | 8.0 | 0.00 | 0.00 | 0.00 | 96 | 1012.9 |
| 20260903101703 | 16 | 275 | 4.8 | 8.0 | 0.00 | 0.00 | 0.00 | 96 | 1012.9 |
| 20260903101202 | 15 | 285 | 3.2 | 8.0 | 0.00 | 0.00 | 0.00 | 95 | 1012.9 |
| 20260903100702 | 15 | 298 | 6.4 | 8.0 | 0.00 | 0.00 | 0.00 | 95 | 1013.0 |
| 20260903100203 | 15 | 276 | 3.2 | 6.4 | 0.00 | 0.00 | 0.00 | 95 | 1012.9 |
| 20260903095702 | 15 | 278 | 3.2 | 6.4 | 0.00 | 0.00 | 0.00 | 95 | 1012.8 |
| 20260903095201 | 15 | 275 | 3.2 | 6.4 | 0.00 | 0.00 | 0.00 | 95 | 1012.8 |
| 20260903094657 | 15 | 283 | 1.6 | 4.8 | 0.00 | 0.00 | 0.00 | 94 | 1012.8 |
| 20260903094423 | 15 | 274 | 3.2 | 4.8 | 0.00 | 0.00 | 0.00 | 94 | 1012.7 |
| 20260903093658 | 15 | 252 | 1.6 | 6.4 | 0.00 | 0.00 | 0.00 | 94 | 1012.7 |
| 20260903093159 | 15 | 268 | 3.2 | 6.4 | 0.00 | 0.00 | 0.00 | 94 | 1012.9 |
| 20260903092656 | 15 | 282 | 3.2 | 4.8 | 0.00 | 0.00 | 0.00 | 94 | 1012.9 |
| 20260903092157 | 15 | 265 | 3.2 | 4.8 | 0.00 | 0.00 | 0.00 | 94 | 1012.8 |
| 20260903091653 | 15 | 274 | 1.6 | 3.2 | 0.00 | 0.00 | 0.00 | 94 | 1012.8 |
| 20260903091427 | 15 | 300 | 1.6 | 3.2 | 0.00 | 0.00 | 0.00 | 93 | 1012.7 |
| 20260903090919 | 15 | 275 | 1.6 | 3.2 | 0.00 | 0.00 | 0.00 | 93 | 1012.6 |
| 20260903090156 | 15 | 269 | 1.6 | 3.2 | 0.00 | 0.00 | 0.00 | 93 | 1012.6 |
| 20260903085923 | 15 | 275 | 0.0 | 3.2 | 0.00 | 0.00 | 0.00 | 93 | 1012.7 |
| 20260903085425 | 15 | 272 | 1.6 | 3.2 | 0.00 | 0.00 | 0.00 | 93 | 1012.7 |
| 20260903084649 | 15 | 286 | 0.0 | 1.6 | 0.00 | 0.00 | 0.00 | 93 | 1012.7 |
| 20260903084420 | 15 | 288 | 0.0 | 0.0 | 0.00 | 0.00 | 0.00 | 93 | 1012.7 |
| 20260903083650 | 15 | 292 | 0.0 | 3.2 | 0.00 | 0.00 | 0.00 | 92 | 1012.6 |
| 20260903083148 | 16 | 272 | 0.0 | 3.2 | 0.00 | 0.00 | 0.00 | 92 | 1012.6 |
| 20260903082647 | 16 | 269 | 0.0 | 1.6 | 0.00 | 0.00 | 0.00 | 92 | 1012.5 |
| 20260903082148 | 16 | 268 | 0.0 | 3.2 | 0.00 | 0.00 | 0.00 | 92 | 1012.4 |
| 20260903081649 | 16 | 271 | 1.6 | 3.2 | 0.00 | 0.00 | 0.00 | 91 | 1012.6 |
| 20260903081151 | 16 | 271 | 1.6 | 3.2 | 0.00 | 0.00 | 0.00 | 91 | 1012.6 |
| 20260903080646 | 16 | 314 | 0.0 | 3.2 | 0.00 | 0.00 | 0.00 | 91 | 1012.7 |
| 20260903080153 | 16 | 264 | 0.0 | 3.2 | 0.00 | 0.00 | 0.00 | 90 | 1012.6 |
| 20260903075512 | 16 | 259 | 0.0 | 3.2 | 0.00 | 0.00 | 0.00 | 90 | 1012.6 |
| 20260903075014 | 16 | 257 | 0.0 | 3.2 | 0.00 | 0.00 | 0.00 | 90 | 1012.6 |
| 20260903074510 | 16 | 264 | 0.0 | 3.2 | 0.00 | 0.00 | 0.00 | 90 | 1012.6 |
| 20260903074010 | 16 | 264 | 0.0 | 4.8 | 0.00 | 0.00 | 0.00 | 90 | 1012.5 |
| 20260903073735 | 17 | 265 | 3.2 | 4.8 | 0.00 | 0.00 | 0.00 | 90 | 1012.5 |
| 20260903073232 | 17 | 302 | 0.0 | 4.8 | 0.00 | 0.00 | 0.00 | 90 | 1012.5 |
| 20260903072508 | 17 | 303 | 0.0 | 4.8 | 0.00 | 0.00 | 0.00 | 90 | 1012.4 |
| 20260903072008 | 17 | 290 | 0.0 | 3.2 | 0.00 | 0.00 | 0.00 | 90 | 1012.4 |
| 20260903071731 | 17 | 283 | 0.0 | 3.2 | 0.00 | 0.00 | 0.00 | 90 | 1012.4 |
| 20260903071234 | 17 | 320 | 0.0 | 4.8 | 0.00 | 0.00 | 0.00 | 90 | 1012.4 |
| 20260903070504 | 16 | 282 | 0.0 | 4.8 | 0.00 | 0.00 | 0.00 | 91 | 1012.4 |
| 20260903070005 | 16 | 282 | 3.2 | 6.4 | 0.00 | 0.00 | 0.00 | 91 | 1012.3 |
| 20260903065742 | 16 | 276 | 4.8 | 6.4 | 0.00 | 0.00 | 0.00 | 91 | 1012.4 |
| 20260903065233 | 16 | 275 | 3.2 | 4.8 | 0.00 | 0.00 | 0.00 | 91 | 1012.3 |
| 20260903064503 | 16 | 283 | 1.6 | 4.8 | 0.00 | 0.00 | 0.00 | 91 | 1012.3 |
| 20260903064006 | 16 | 278 | 1.6 | 4.8 | 0.00 | 0.00 | 0.00 | 90 | 1012.3 |
| 20260903063503 | 16 | 282 | 1.6 | 4.8 | 0.00 | 0.00 | 0.00 | 90 | 1012.3 |
| 20260903063006 | 16 | 276 | 3.2 | 6.4 | 0.00 | 0.00 | 0.00 | 90 | 1012.3 |
| 20260903062503 | 17 | 275 | 4.8 | 6.4 | 0.00 | 0.00 | 0.00 | 90 | 1012.2 |
| 20260903062002 | 17 | 271 | 4.8 | 8.0 | 0.00 | 0.00 | 0.00 | 90 | 1012.2 |
| 20260903061502 | 17 | 262 | 4.8 | 8.0 | 0.00 | 0.00 | 0.00 | 90 | 1012.1 |
| 20260903061003 | 17 | 278 | 3.2 | 6.4 | 0.00 | 0.00 | 0.00 | 90 | 1012.1 |
| 20260903060502 | 17 | 264 | 3.2 | 4.8 | 0.00 | 0.00 | 0.00 | 90 | 1012.1 |
| 20260903060001 | 17 | 295 | 3.2 | 4.8 | 0.00 | 0.00 | 0.00 | 90 | 1011.9 |
| 20260903055502 | 17 | 264 | 1.6 | 4.8 | 0.00 | 0.00 | 0.00 | 91 | 1011.9 |
| 20260903055239 | 17 | 275 | 3.2 | 4.8 | 0.00 | 0.00 | 0.00 | 91 | 1011.9 |
| 20260903054503 | 17 | 306 | 1.6 | 4.8 | 0.00 | 0.00 | 0.00 | 91 | 1011.9 |
| 20260903054003 | 17 | 312 | 1.6 | 6.4 | 0.00 | 0.00 | 0.00 | 92 | 1011.9 |
| 20260903053504 | 17 | 289 | 1.6 | 6.4 | 0.00 | 0.00 | 0.00 | 92 | 1011.9 |
| 20260903053006 | 17 | 298 | 3.2 | 6.4 | 0.00 | 0.00 | 0.00 | 93 | 1011.8 |
| 20260903052502 | 17 | 326 | 3.2 | 6.4 | 0.00 | 0.00 | 0.00 | 93 | 1011.8 |
| 20260903052002 | 17 | 290 | 3.2 | 6.4 | 0.00 | 0.00 | 0.00 | 93 | 1011.7 |
| 20260903051501 | 17 | 279 | 1.6 | 4.8 | 0.00 | 0.00 | 0.00 | 93 | 1011.7 |
| 20260903051003 | 17 | 290 | 1.6 | 3.2 | 0.00 | 0.00 | 0.00 | 93 | 1011.8 |
| 20260903050502 | 17 | 303 | 1.6 | 4.8 | 0.00 | 0.00 | 0.00 | 93 | 1011.7 |
| 20260903045959 | 17 | 281 | 1.6 | 6.4 | 0.00 | 0.00 | 0.00 | 93 | 1011.7 |
| 20260903045500 | 17 | 336 | 3.2 | 8.0 | 0.00 | 0.00 | 0.00 | 93 | 1011.6 |
| 20260903045000 | 17 | 278 | 4.8 | 8.0 | 0.00 | 0.00 | 0.00 | 93 | 1011.6 |
| 20260903044459 | 17 | 286 | 4.8 | 8.0 | 0.00 | 0.00 | 0.00 | 93 | 1011.5 |
| 20260903044000 | 17 | 281 | 4.8 | 6.4 | 0.00 | 0.00 | 0.00 | 93 | 1011.5 |
| 20260903043501 | 17 | 275 | 4.8 | 6.4 | 0.00 | 0.00 | 0.00 | 93 | 1011.5 |
| 20260903042956 | 17 | 275 | 3.2 | 4.8 | 0.00 | 0.00 | 0.00 | 93 | 1011.4 |
| 20260903042455 | 17 | 282 | 1.6 | 4.8 | 0.00 | 0.00 | 0.00 | 93 | 1011.4 |
| 20260903041954 | 17 | 282 | 1.6 | 3.2 | 0.00 | 0.00 | 0.00 | 93 | 1011.5 |
| 20260903041455 | 17 | 276 | 1.6 | 4.8 | 0.00 | 0.00 | 0.00 | 93 | 1011.4 |
| 20260903040952 | 17 | 275 | 0.0 | 4.8 | 0.00 | 0.00 | 0.00 | 92 | 1011.5 |
| 20260903040452 | 17 | 274 | 3.2 | 4.8 | 0.00 | 0.00 | 0.00 | 92 | 1011.6 |
| 20260903035951 | 17 | 267 | 3.2 | 4.8 | 0.00 | 0.00 | 0.00 | 92 | 1011.5 |
| 20260903035721 | 17 | 261 | 1.6 | 3.2 | 0.00 | 0.00 | 0.00 | 92 | 1011.5 |
| 20260903035221 | 17 | 271 | 1.6 | 3.2 | 0.00 | 0.00 | 0.00 | 92 | 1011.5 |
| 20260903034451 | 17 | 272 | 3.2 | 3.2 | 0.00 | 0.00 | 0.00 | 92 | 1011.6 |
| 20260903033952 | 17 | 257 | 1.6 | 3.2 | 0.00 | 0.00 | 0.00 | 91 | 1011.7 |
| 20260903033451 | 17 | 259 | 1.6 | 3.2 | 0.00 | 0.00 | 0.00 | 91 | 1011.7 |
| 20260903032950 | 18 | 275 | 0.0 | 3.2 | 0.00 | 0.00 | 0.00 | 91 | 1011.6 |
| 20260903032451 | 18 | 268 | 1.6 | 3.2 | 0.00 | 0.00 | 0.00 | 90 | 1011.7 |
| 20260903031951 | 18 | 268 | 1.6 | 3.2 | 0.00 | 0.00 | 0.00 | 90 | 1011.7 |
| 20260903031452 | 18 | 265 | 1.6 | 4.8 | 0.00 | 0.00 | 0.00 | 90 | 1011.6 |
| 20260903031218 | 18 | 269 | 1.6 | 4.8 | 0.00 | 0.00 | 0.00 | 90 | 1011.7 |
| 20260903030449 | 18 | 281 | 0.0 | 3.2 | 0.00 | 0.00 | 0.00 | 89 | 1011.7 |
| 20260903025947 | 18 | 278 | 0.0 | 3.2 | 0.00 | 0.00 | 0.00 | 89 | 1011.7 |
| 20260903025446 | 18 | 292 | 0.0 | 4.8 | 0.00 | 0.00 | 0.00 | 88 | 1011.7 |
| 20260903024946 | 18 | 272 | 1.6 | 6.4 | 0.00 | 0.00 | 0.00 | 88 | 1011.6 |
| 20260903024711 | 18 | 271 | 3.2 | 6.4 | 0.00 | 0.00 | 0.00 | 87 | 1011.6 |
| 20260903023945 | 19 | 278 | 3.2 | 6.4 | 0.00 | 0.00 | 0.00 | 86 | 1011.7 |
| 20260903023445 | 19 | 258 | 3.2 | 3.2 | 0.00 | 0.00 | 0.00 | 86 | 1011.6 |
| 20260903022945 | 19 | 251 | 1.6 | 3.2 | 0.00 | 0.00 | 0.00 | 85 | 1011.5 |
| 20260903022443 | 19 | 271 | 0.0 | 3.2 | 0.00 | 0.00 | 0.00 | 85 | 1011.6 |
| 20260903022216 | 19 | 286 | 1.6 | 4.8 | 0.00 | 0.00 | 0.00 | 85 | 1011.6 |
| 20260903021442 | 20 | 306 | 0.0 | 4.8 | 0.00 | 0.00 | 0.00 | 85 | 1011.5 |
| 20260903020939 | 20 | 302 | 1.6 | 4.8 | 0.00 | 0.00 | 0.00 | 85 | 1011.5 |
| 20260903020439 | 20 | 322 | 0.0 | 3.2 | 0.00 | 0.00 | 0.00 | 85 | 1011.4 |
| 20260903015936 | 20 | 323 | 0.0 | 6.4 | 0.00 | 0.00 | 0.00 | 86 | 1011.4 |
| 20260903015434 | 20 | 320 | 1.6 | 6.4 | 0.00 | 0.00 | 0.00 | 86 | 1011.3 |
| 20260903014935 | 20 | 329 | 0.0 | 4.8 | 0.00 | 0.00 | 0.00 | 87 | 1011.4 |
| 20260903014434 | 20 | 312 | 0.0 | 3.2 | 0.00 | 0.00 | 0.00 | 87 | 1011.3 |
| 20260903013934 | 20 | 314 | 0.0 | 3.2 | 0.00 | 0.00 | 0.00 | 87 | 1011.4 |
| 20260903013434 | 20 | 351 | 0.0 | 3.2 | 0.00 | 0.00 | 0.00 | 87 | 1011.4 |
| 20260903012936 | 20 | 293 | 0.0 | 0.0 | 0.00 | 0.00 | 0.00 | 87 | 1011.3 |
| 20260903012433 | 20 | 292 | 0.0 | 0.0 | 0.00 | 0.00 | 0.00 | 87 | 1011.3 |
| 20260903012158 | 20 | 292 | 0.0 | 0.0 | 0.00 | 0.00 | 0.00 | 87 | 1011.3 |
| 20260903011701 | 20 | 292 | 0.0 | 3.2 | 0.00 | 0.00 | 0.00 | 86 | 1011.3 |
| 20260903010932 | 20 | 25 | 0.0 | 3.2 | 0.00 | 0.00 | 0.00 | 86 | 1011.3 |
| 20260903010431 | 20 | 21 | 0.0 | 1.6 | 0.00 | 0.00 | 0.00 | 86 | 1011.2 |
| 20260903005931 | 20 | 302 | 0.0 | 1.6 | 0.00 | 0.00 | 0.00 | 86 | 1011.0 |
| 20260903005430 | 20 | 49 | 0.0 | 0.0 | 0.00 | 0.00 | 0.00 | 86 | 1010.9 |
| 20260903004429 | 20 | 59 | 0.0 | 6.4 | 0.00 | 0.00 | 0.00 | 86 | 1010.9 |
| 20260903003930 | 20 | 41 | 1.6 | 4.8 | 0.00 | 0.00 | 0.00 | 85 | 1010.9 |
| 20260903003655 | 20 | 319 | 0.0 | 4.8 | 0.00 | 0.00 | 0.00 | 85 | 1010.9 |
| 20260903002928 | 20 | 25 | 0.0 | 4.8 | 0.00 | 0.00 | 0.00 | 85 | 1010.8 |
| 20260903002427 | 21 | 17 | 1.6 | 3.2 | 0.00 | 0.00 | 0.00 | 84 | 1010.8 |
| 20260903001925 | 21 | 322 | 0.0 | 0.0 | 0.00 | 0.00 | 0.00 | 84 | 1010.8 |
| 20260903001425 | 21 | 322 | 0.0 | 1.6 | 0.00 | 0.00 | 0.00 | 84 | 1010.7 |
| 20260903001153 | 21 | 322 | 0.0 | 1.6 | 0.00 | 0.00 | 0.00 | 83 | 1010.8 |
| 20260903000426 | 21 | 21 | 0.0 | 3.2 | 0.00 | 0.00 | 0.00 | 83 | 1010.8 |
| 20260902235923 | 21 | 40 | 1.6 | 3.2 | 0.00 | 0.00 | 0.00 | 83 | 1010.7 |
| 20260902235418 | 21 | 326 | 0.0 | 0.0 | 0.00 | 0.00 | 0.00 | 82 | 1010.7 |
| 20260902234918 | 21 | 326 | 0.0 | 0.0 | 0.00 | 0.00 | 0.00 | 82 | 1010.6 |
| 20260902233918 | 21 | 340 | 0.0 | 1.6 | 0.00 | 0.00 | 0.00 | 81 | 1010.6 |
| 20260902233417 | 22 | 19 | 0.0 | 1.6 | 0.00 | 0.00 | 0.00 | 80 | 1010.5 |
| 20260902233147 | 22 | 21 | 0.0 | 1.6 | 0.00 | 0.00 | 0.00 | 80 | 1010.6 |
| 20260902232414 | 22 | 21 | 0.0 | 1.6 | 0.00 | 0.00 | 0.00 | 80 | 1010.6 |
| 20260902232146 | 22 | 21 | 0.0 | 3.2 | 0.00 | 0.00 | 0.00 | 79 | 1010.7 |
| 20260902231641 | 22 | 27 | 1.6 | 3.2 | 0.00 | 0.00 | 0.00 | 79 | 1010.7 |
| 20260902230914 | 22 | 310 | 0.0 | 3.2 | 0.00 | 0.00 | 0.00 | 79 | 1010.8 |
| 20260902230412 | 22 | 340 | 0.0 | 4.8 | 0.00 | 0.00 | 0.00 | 78 | 1010.7 |
| 20260902225912 | 22 | 7 | 1.6 | 4.8 | 0.00 | 0.00 | 0.00 | 78 | 1010.7 |
| 20260902225412 | 22 | 330 | 0.0 | 4.8 | 0.00 | 0.00 | 0.00 | 78 | 1010.8 |
| 20260902224912 | 22 | 327 | 0.0 | 4.8 | 0.00 | 0.00 | 0.00 | 79 | 1010.8 |
| 20260902224411 | 22 | 17 | 0.0 | 4.8 | 0.00 | 0.00 | 0.00 | 80 | 1010.9 |
| 20260902223913 | 22 | 322 | 0.0 | 8.0 | 0.00 | 0.00 | 0.00 | 81 | 1010.8 |
| 20260902223411 | 22 | 313 | 0.0 | 8.0 | 0.00 | 0.00 | 0.00 | 82 | 1010.8 |
| 20260902223139 | 21 | 300 | 3.2 | 8.0 | 0.00 | 0.00 | 0.00 | 83 | 1010.9 |
| 20260902222410 | 21 | 345 | 0.0 | 8.0 | 0.00 | 0.00 | 0.00 | 84 | 1010.9 |
| 20260902221909 | 21 | 351 | 0.0 | 8.0 | 0.00 | 0.00 | 0.00 | 85 | 1010.7 |
| 20260902221410 | 21 | 305 | 0.0 | 8.0 | 0.00 | 0.00 | 0.00 | 85 | 1010.7 |
| 20260902220905 | 21 | 11 | 0.0 | 4.8 | 0.00 | 0.00 | 0.00 | 85 | 1010.5 |
| 20260902220404 | 21 | 285 | 0.0 | 8.0 | 0.00 | 0.00 | 0.00 | 85 | 1010.6 |
| 20260902215904 | 21 | 7 | 1.6 | 8.0 | 0.00 | 0.00 | 0.00 | 85 | 1010.5 |
| 20260902215405 | 21 | 21 | 0.0 | 8.0 | 0.00 | 0.00 | 0.00 | 85 | 1010.5 |
| 20260902215133 | 21 | 31 | 1.6 | 8.0 | 0.00 | 0.00 | 0.00 | 85 | 1010.6 |
| 20260902214402 | 21 | 11 | 0.0 | 6.4 | 0.00 | 0.00 | 0.00 | 84 | 1010.6 |
| 20260902213905 | 21 | 306 | 1.6 | 6.4 | 0.00 | 0.00 | 0.00 | 84 | 1010.6 |
| 20260902213629 | 21 | 15 | 0.0 | 6.4 | 0.00 | 0.00 | 0.00 | 83 | 1010.6 |
| 20260902212903 | 21 | 209 | 0.0 | 6.4 | 0.00 | 0.00 | 0.00 | 83 | 1010.7 |
| 20260902212446 | 21 | 353 | 0.0 | 6.4 | 0.00 | 0.00 | 0.00 | 82 | 1010.7 |
| 20260902211902 | 22 | 345 | 1.6 | 4.8 | 0.00 | 0.00 | 0.00 | 82 | 1010.7 |
| 20260902211402 | 22 | 358 | 1.6 | 4.8 | 0.00 | 0.00 | 0.00 | 81 | 1010.7 |
| 20260902210903 | 22 | 264 | 1.6 | 4.8 | 0.00 | 0.00 | 0.00 | 81 | 1010.7 |
| 20260902210403 | 22 | 34 | 1.6 | 4.8 | 0.00 | 0.00 | 0.00 | 81 | 1010.6 |
| 20260902205905 | 22 | 8 | 0.0 | 8.0 | 0.00 | 0.00 | 0.00 | 80 | 1010.5 |
| 20260902205633 | 22 | 31 | 3.2 | 8.0 | 0.00 | 0.00 | 0.00 | 81 | 1010.4 |
| 20260902204903 | 22 | 259 | 1.6 | 6.4 | 0.00 | 0.00 | 0.00 | 81 | 1010.5 |
| 20260902204650 | 22 | 73 | 1.6 | 6.4 | 0.00 | 0.00 | 0.00 | 81 | 1010.5 |
| 20260902204134 | 23 | 316 | 1.6 | 9.7 | 0.00 | 0.00 | 0.00 | 78 | 1010.5 |
| 20260902203401 | 23 | 24 | 1.6 | 9.7 | 0.00 | 0.00 | 0.00 | 78 | 1010.5 |
| 20260902202859 | 23 | 12 | 4.8 | 9.7 | 0.00 | 0.00 | 0.00 | 78 | 1010.5 |
| 20260902202616 | 23 | 41 | 3.2 | 9.7 | 0.00 | 0.00 | 0.00 | 75 | 1010.8 |
| 20260902202536 | 23 | 329 | 4.8 | 9.7 | 0.00 | 0.00 | 0.00 | 77 | 1010.6 |
| 20260902201415 | 24 | 37 | 1.6 | 11.3 | 0.00 | 0.00 | 0.00 | 74 | 1010.7 |
| 20260902200855 | 24 | 24 | 0.0 | 14.5 | 0.00 | 0.00 | 0.00 | 72 | 1010.8 |
| 20260902200355 | 25 | 330 | 1.6 | 14.5 | 0.00 | 0.00 | 0.00 | 70 | 1010.9 |
| 20260902195854 | 27 | 34 | 4.8 | 14.5 | 0.00 | 0.00 | 0.00 | 59 | 1011.0 |
| 20260902195355 | 27 | 190 | 0.0 | 16.1 | 0.00 | 0.00 | 0.00 | 58 | 1011.0 |
| 20260902195118 | 27 | 300 | 9.7 | 16.1 | 0.00 | 0.00 | 0.00 | 57 | 1011.1 |
| 20260902194351 | 27 | 299 | 3.2 | 11.3 | 0.00 | 0.00 | 0.00 | 59 | 1011.1 |
| 20260902193851 | 27 | 255 | 6.4 | 14.5 | 0.00 | 0.00 | 0.00 | 60 | 1011.1 |
| 20260902193749 | 27 | 306 | 6.4 | 14.5 | 0.00 | 0.00 | 0.00 | 58 | 1011.1 |
| 20260902192849 | 27 | 272 | 6.4 | 17.7 | 0.00 | 0.00 | 0.00 | 60 | 1011.2 |
| 20260902192351 | 27 | 234 | 8.0 | 17.7 | 0.00 | 0.00 | 0.00 | 60 | 1011.4 |
| 20260902191850 | 27 | 269 | 3.2 | 17.7 | 0.00 | 0.00 | 0.00 | 62 | 1011.5 |
| 20260902191353 | 27 | 314 | 4.8 | 11.3 | 0.00 | 0.00 | 0.00 | 63 | 1011.4 |
| 20260902190851 | 26 | 272 | 6.4 | 19.3 | 0.00 | 0.00 | 0.00 | 66 | 1011.4 |
| 20260902190400 | 26 | 265 | 11.3 | 19.3 | 0.00 | 0.00 | 0.00 | 65 | 1011.6 |
| 20260902185852 | 26 | 307 | 8.0 | 17.7 | 0.00 | 0.00 | 0.00 | 67 | 1011.6 |
| 20260902185619 | 26 | 262 | 8.0 | 19.3 | 0.00 | 0.00 | 0.00 | 66 | 1011.6 |
| 20260902184857 | 26 | 281 | 11.3 | 19.3 | 0.00 | 0.00 | 0.00 | 65 | 1011.6 |
| 20260902184352 | 26 | 240 | 6.4 | 17.7 | 0.00 | 0.00 | 0.00 | 64 | 1011.6 |
| 20260902184117 | 26 | 317 | 8.0 | 20.9 | 0.00 | 0.00 | 0.00 | 65 | 1011.6 |
| 20260902183353 | 25 | 282 | 9.7 | 16.1 | 0.00 | 0.00 | 0.00 | 66 | 1011.6 |
| 20260902182851 | 25 | 292 | 3.2 | 16.1 | 0.00 | 0.00 | 0.00 | 67 | 1011.5 |
| 20260902182347 | 25 | 285 | 6.4 | 16.1 | 0.00 | 0.00 | 0.00 | 65 | 1011.4 |
| 20260902181847 | 25 | 261 | 4.8 | 17.7 | 0.00 | 0.00 | 0.00 | 66 | 1011.4 |
| 20260902181348 | 25 | 292 | 3.2 | 17.7 | 0.00 | 0.00 | 0.00 | 67 | 1011.2 |
| 20260902180848 | 25 | 259 | 9.7 | 16.1 | 0.00 | 0.00 | 0.00 | 66 | 1011.2 |
| 20260902180349 | 25 | 292 | 6.4 | 11.3 | 0.00 | 0.00 | 0.00 | 70 | 1011.2 |
| 20260902175848 | 25 | 292 | 3.2 | 9.7 | 0.00 | 0.00 | 0.00 | 70 | 1011.1 |
| 20260902175349 | 25 | 288 | 6.4 | 14.5 | 0.00 | 0.00 | 0.00 | 70 | 1011.0 |
| 20260902174851 | 24 | 261 | 8.0 | 16.1 | 0.00 | 0.00 | 0.00 | 71 | 1011.0 |
| 20260902174349 | 24 | 267 | 8.0 | 16.1 | 0.00 | 0.00 | 0.00 | 72 | 1011.1 |
| 20260902173850 | 25 | 257 | 3.2 | 14.5 | 0.00 | 0.00 | 0.00 | 74 | 1011.2 |
| 20260902173112 | 24 | 262 | 9.7 | 16.1 | 0.00 | 0.00 | 0.00 | 73 | 1011.5 |
| 20260902172348 | 24 | 276 | 9.7 | 22.5 | 0.00 | 0.00 | 0.00 | 76 | 1011.5 |
| 20260902171848 | 23 | 259 | 14.5 | 22.5 | 0.00 | 0.00 | 0.00 | 76 | 1011.7 |
| 20260902171347 | 23 | 252 | 9.7 | 17.7 | 0.00 | 0.00 | 0.00 | 80 | 1011.6 |
| 20260902170847 | 23 | 248 | 9.7 | 16.1 | 0.00 | 0.00 | 0.00 | 80 | 1011.6 |
| 20260902170346 | 23 | 217 | 6.4 | 20.9 | 0.00 | 0.00 | 0.00 | 81 | 1011.6 |
| 20260902165846 | 23 | 243 | 9.7 | 20.9 | 0.00 | 0.00 | 0.00 | 81 | 1011.5 |
| 20260902165348 | 23 | 254 | 6.4 | 19.3 | 0.00 | 0.00 | 0.00 | 82 | 1011.6 |
| 20260902165114 | 23 | 268 | 6.4 | 14.5 | 0.00 | 0.00 | 0.00 | 85 | 1011.5 |
| 20260902164347 | 22 | 282 | 4.8 | 14.5 | 0.00 | 0.00 | 0.00 | 86 | 1011.5 |
| 20260902163846 | 22 | 272 | 6.4 | 16.1 | 0.00 | 0.00 | 0.00 | 87 | 1011.7 |
| 20260902163351 | 22 | 293 | 8.0 | 16.1 | 0.00 | 0.00 | 0.00 | 87 | 1011.8 |
| 20260902162847 | 22 | 262 | 8.0 | 16.1 | 0.00 | 0.00 | 0.00 | 88 | 1011.8 |
| 20260902162617 | 22 | 267 | 6.4 | 16.1 | 0.00 | 0.00 | 0.00 | 88 | 1011.7 |
| 20260902161844 | 22 | 267 | 6.4 | 11.3 | 0.00 | 0.00 | 0.00 | 88 | 1011.5 |
| 20260902161346 | 21 | 250 | 6.4 | 9.7 | 0.00 | 0.00 | 0.00 | 89 | 1011.6 |
| 20260902160843 | 21 | 258 | 3.2 | 8.0 | 0.00 | 0.00 | 0.00 | 89 | 1011.5 |
| 20260902160343 | 21 | 317 | 1.6 | 9.7 | 0.00 | 0.00 | 0.00 | 90 | 1011.6 |
| 20260902155845 | 22 | 358 | 0.0 | 9.7 | 0.00 | 0.00 | 0.00 | 89 | 1011.8 |
| 20260902155341 | 22 | 307 | 1.6 | 9.7 | 0.00 | 0.00 | 0.00 | 89 | 1011.9 |
| 20260902154839 | 22 | 289 | 3.2 | 9.7 | 0.00 | 0.00 | 0.00 | 90 | 1011.5 |
| 20260902154337 | 21 | 336 | 3.2 | 9.7 | 0.00 | 0.00 | 0.00 | 93 | 1011.5 |
| 20260902153837 | 21 | 255 | 0.0 | 1.6 | 0.00 | 0.00 | 0.00 | 93 | 1011.4 |
| 20260902153334 | 21 | 12 | 0.0 | 0.0 | 0.00 | 0.00 | 0.00 | 94 | 1011.3 |
| 20260902152835 | 21 | 12 | 0.0 | 1.6 | 0.00 | 0.00 | 0.00 | 94 | 1011.1 |
| 20260902152334 | 21 | 12 | 0.0 | 3.2 | 0.00 | 0.00 | 0.00 | 94 | 1010.9 |
| 20260902151834 | 21 | 34 | 0.0 | 3.2 | 0.00 | 0.00 | 0.00 | 93 | 1010.8 |
| 20260902151334 | 21 | 300 | 1.6 | 4.8 | 0.00 | 0.00 | 0.00 | 93 | 1010.9 |
| 20260902150834 | 21 | 62 | 3.2 | 4.8 | 0.00 | 0.00 | 0.00 | 92 | 1010.7 |
| 20260902150559 | 21 | 41 | 0.0 | 3.2 | 0.00 | 0.00 | 0.00 | 91 | 1010.8 |
| 20260902150057 | 21 | 309 | 0.0 | 4.8 | 0.00 | 0.00 | 0.00 | 91 | 1010.8 |
| 20260902145331 | 21 | 61 | 3.2 | 4.8 | 0.00 | 0.00 | 0.00 | 91 | 1010.2 |
| 20260902144832 | 21 | 42 | 1.6 | 3.2 | 0.00 | 0.00 | 0.00 | 91 | 1009.9 |
| 20260902144331 | 21 | 92 | 0.0 | 3.2 | 0.00 | 0.00 | 0.00 | 91 | 1009.6 |
| 20260902143831 | 21 | 92 | 0.0 | 4.8 | 0.00 | 0.00 | 0.00 | 92 | 1009.5 |
| 20260902143331 | 21 | 90 | 1.6 | 4.8 | 0.00 | 0.00 | 0.00 | 92 | 1009.2 |
| 20260902142832 | 21 | 110 | 1.6 | 4.8 | 0.00 | 0.00 | 0.00 | 91 | 1009.5 |
| 20260902142330 | 21 | 72 | 0.0 | 4.8 | 0.00 | 0.00 | 0.00 | 91 | 1010.0 |
| 20260902141832 | 21 | 19 | 0.0 | 6.4 | 0.00 | 0.00 | 0.00 | 92 | 1010.9 |